Kecskemet, Hungary

4:33 AM CEST on September 23, 2017 (GMT +0200)
Kecskemet

Weather History for LHKE - April, 2013

Change the Weather History Date:

Tuesday, April 9, 2013

  Actual Average (LHBP) Record (LHBP)
Temperature  
Mean Temperature 46 °F -  
Max Temperature 51 °F 56 °F 104 °F (2002)
Min Temperature 41 °F 37 °F 21 °F (1997)
Degree Days  
Heating Degree Days 19    
Moisture  
Dew Point 40 °F    
Average Humidity 81    
Maximum Humidity 100    
Minimum Humidity 54    
Precipitation  
Precipitation 0.00 in - - ()
Sea Level Pressure  
Sea Level Pressure 29.80 in    
Wind  
Wind Speed 5 mph ()    
Max Wind Speed 9 mph    
Max Gust Speed -    
Visibility 5.2 miles    
Events Rain    
Averages and records for this station are not official NWS values.
T = Trace of Precipitation, MM = Missing Value Source: Averaged Metar Reports

Daily Weather History Graph

Daily Weather History Graph

Search for Another Location

Airport or City:

Trip Planner

Search our weather history database for the weather conditions in past years. The results will help you decide how hot, cold, wet, or windy it might be!

Date:

Astronomy

Apr. 09, 2013 Rise Set
Actual Time 6:04 AM CEST 7:21 PM CEST
Civil Twilight 5:33 AM CEST 7:52 PM CEST
Nautical Twilight 4:55 AM CEST 8:30 PM CEST
Astronomical Twilight 4:15 AM CEST 9:11 PM CEST
Moon 5:20 AM CEST (4/9) 6:37 PM CEST (4/9)
Length of Visible Light 14h 19m
Length of Day
13h 16m
Waning Crescent, 1% of the Moon is Illuminated
Apr 9
Waning Crescent
Apr 10
New
Apr 18
First Quarter
Apr 25
Full
May 2
Last Quarter

Hourly Weather History & Observations

Time (CEST) Temp. Windchill Dew Point Humidity Pressure Visibility Wind Dir Wind Speed Gust Speed Precip Events Conditions
12:15 AM 42.8 °F 40.2 °F 35.6 °F 76% 29.83 in - ESE 4.5 mph - N/A   Clear
12:45 AM 42.8 °F 40.2 °F 35.6 °F 76% 29.83 in - SE 4.5 mph - N/A   Clear
1:15 AM 42.8 °F 40.2 °F 35.6 °F 76% 29.80 in 6.2 mi ESE 4.5 mph - N/A   Overcast
1:45 AM 42.8 °F 40.2 °F 35.6 °F 76% 29.80 in 6.2 mi ESE 4.5 mph - N/A   Overcast
2:15 AM 42.8 °F 40.2 °F 37.4 °F 81% 29.80 in 6.2 mi ESE 4.5 mph - N/A   Overcast
2:45 AM 42.8 °F 40.2 °F 37.4 °F 81% 29.80 in 6.2 mi ESE 4.5 mph - N/A   Overcast
3:15 AM 42.8 °F 40.2 °F 39.2 °F 87% 29.80 in 5.0 mi East 4.5 mph - N/A Rain Light Rain
3:45 AM - - - N/A% - 6.2 mi East 4.5 mph - N/A   Overcast
4:15 AM 41.0 °F 38.1 °F 39.2 °F 93% 29.77 in 3.7 mi East 4.5 mph - N/A   Overcast
4:45 AM 41.0 °F 38.1 °F 41.0 °F 100% 29.77 in 3.7 mi East 4.5 mph - N/A   Overcast
5:15 AM 41.0 °F 38.1 °F 41.0 °F 100% 29.77 in 3.7 mi ESE 4.5 mph - N/A   Overcast
5:45 AM 41.0 °F 38.1 °F 39.2 °F 93% 29.80 in 3.1 mi ESE 4.5 mph - N/A   Overcast
6:07 AM 41.0 °F 38.1 °F 39.2 °F 93% 29.80 in 1.9 mi SE 4.5 mph - N/A   Overcast
6:15 AM 41.0 °F 38.1 °F 39.2 °F 93% 29.80 in 1.2 mi SE 4.5 mph - N/A   Overcast
6:45 AM - - - N/A% - 6.2 mi SSE 6.7 mph - N/A   Mostly Cloudy
7:15 AM 41.0 °F 38.1 °F 41.0 °F 100% 29.80 in 2.5 mi SSE 4.5 mph - N/A   Mostly Cloudy
7:45 AM 42.8 °F 38.7 °F 41.0 °F 93% 29.80 in 2.5 mi SSE 6.7 mph - N/A   Mostly Cloudy
8:10 AM 42.8 °F 38.7 °F 41.0 °F 93% 29.80 in 3.1 mi SSE 6.7 mph - N/A   Mostly Cloudy
8:15 AM 42.8 °F 38.7 °F 41.0 °F 93% 29.80 in 3.1 mi South 6.7 mph - N/A   Mostly Cloudy
8:45 AM 42.8 °F 38.7 °F 41.0 °F 93% 29.80 in 3.1 mi SSE 6.7 mph - N/A   Mostly Cloudy
8:50 AM - - - N/A% - 6.2 mi SSE 6.7 mph - N/A   Mostly Cloudy
9:15 AM 44.6 °F 42.3 °F 41.0 °F 87% 29.80 in 3.7 mi South 4.5 mph - N/A   Overcast
9:45 AM - - - N/A% - 5.0 mi SSW 6.7 mph - N/A   Mostly Cloudy
10:15 AM 46.4 °F 44.4 °F 39.2 °F 76% 29.80 in 4.3 mi South 4.5 mph - N/A   Overcast
10:45 AM 46.4 °F 44.4 °F 41.0 °F 81% 29.83 in 5.0 mi South 4.5 mph - N/A   Overcast
11:15 AM 48.2 °F - 39.2 °F 71% 29.83 in 5.0 mi South 4.5 mph - N/A   Overcast
11:45 AM 48.2 °F - 41.0 °F 76% 29.83 in 5.6 mi South 4.5 mph - N/A   Overcast
12:15 PM 50.0 °F - 39.2 °F 66% 29.80 in 5.6 mi South 4.5 mph - N/A   Overcast
12:45 PM - - - N/A% - 6.2 mi SW 6.7 mph - N/A   Overcast
1:15 PM 51.8 °F - 35.6 °F 54% 29.80 in 6.2 mi WSW 6.7 mph - N/A   Overcast
1:45 PM 51.8 °F - 35.6 °F 54% 29.83 in 6.2 mi SW 8.9 mph - N/A   Overcast
2:15 PM 51.8 °F - 37.4 °F 58% 29.80 in 6.2 mi SSW 8.9 mph - N/A   Overcast
2:22 PM 50.0 °F - 37.4 °F 62% 29.83 in 6.2 mi SW 8.9 mph - N/A Rain Light Rain
2:45 PM 50.0 °F - 41.0 °F 71% 29.80 in 6.2 mi SW 8.9 mph - N/A   Overcast
3:15 PM 50.0 °F - 41.0 °F 71% 29.80 in 6.2 mi SW 6.7 mph - N/A   Overcast
3:45 PM - - - N/A% - 6.2 mi SW 6.7 mph - N/A   Overcast
4:15 PM 51.8 °F - 41.0 °F 67% 29.80 in 6.2 mi South 6.7 mph - N/A   Mostly Cloudy
4:45 PM 51.8 °F - 41.0 °F 67% 29.80 in 6.2 mi SSW 6.7 mph - N/A   Mostly Cloudy
5:15 PM 51.8 °F - 41.0 °F 67% 29.80 in 6.2 mi SSW 6.7 mph - N/A   Mostly Cloudy
5:45 PM 51.8 °F - 42.8 °F 71% 29.80 in 6.2 mi SSW 6.7 mph - N/A   Mostly Cloudy
6:15 PM 51.8 °F - 41.0 °F 67% 29.80 in 6.2 mi South 6.7 mph - N/A   Mostly Cloudy
6:45 PM - - - N/A% - 6.2 mi Variable 4.5 mph - N/A   Overcast
7:15 PM 50.0 °F - 42.8 °F 76% 29.80 in 6.2 mi South 4.5 mph - N/A   Mostly Cloudy
7:45 PM 50.0 °F - 42.8 °F 76% 29.80 in - South 4.5 mph - N/A   Clear
8:15 PM 48.2 °F - 44.6 °F 87% 29.80 in - SSE 4.5 mph - N/A   Clear
8:45 PM 48.2 °F - 44.6 °F 87% 29.80 in 6.2 mi SSE 4.5 mph - N/A   Mostly Cloudy
9:15 PM 48.2 °F - 44.6 °F 87% 29.80 in - SSE 4.5 mph - N/A   Clear
9:45 PM - - - N/A% - 6.2 mi Variable 4.5 mph - N/A   Overcast
10:15 PM 48.2 °F - 46.4 °F 93% 29.80 in 6.2 mi SE 4.5 mph - N/A   Mostly Cloudy
10:45 PM 46.4 °F 43.0 °F 44.6 °F 93% 29.80 in 6.2 mi SE 6.7 mph - N/A   Mostly Cloudy
11:15 PM 46.4 °F 44.4 °F 44.6 °F 93% 29.83 in 6.2 mi SE 4.5 mph - N/A   Mostly Cloudy
11:45 PM 46.4 °F 44.4 °F 44.6 °F 93% 29.80 in - SE 4.5 mph - N/A   Clear